Location: Newark
(50.0336°N, 22.0047°E)
Time: 05:33:16
(UTC+00:00)

Envisat - Pass Details

Date: 29 January 2020
Orbit: 764 x 766 km, 98.1° (Epoch: 27 February)

Event Time Altitude Azimuth Distance (km) Brightness Sun altitude
Rises 03:42:21 0° 30° (NNE) 3,244 6.7 -23.7°
Reaches altitude 10° 03:46:09 10° 59° (ENE) 2,310 6.3 -23.1°
Maximum altitude 03:48:19 13° 85° (E) 2,128 6.3 -22.8°
Drops below altitude 10° 03:50:29 10° 110° (ESE) 2,302 6.5 -22.4°
Sets 03:54:14 0° 139° (SE) 3,221 6.9 -21.8°
